This demonstration page uses our WeatherBlox Daily Observations layout. Learn more.

Left ArrowRight Arrow

44.8408, -93.29828

Hourly Observations for August 30, 2017

Temp ( °F °C ) Dew Point ( °F °C ) Humidity (%) Winds ( mph kmh ) Pressure ( in mb ) Visibility ( mi km ) Precip ( " mm )
12:53 am 00:53 Mostly Clear 68 20 59 15 73 73 SSW 5 7 30.05 1018 10 16 0.00 0.00
1:53 am 01:53 Clear 67 19.4 60 15.6 79 79 SSW 3 6 30.05 1018 10 16 0.00 0.00
2:53 am 02:53 Clear 65 18.3 60 15.6 84 84 Calm 30.05 1018 10 16 0.00 0.00
3:53 am 03:53 Clear 65 18.3 61 16.1 87 87 Calm 30.05 1018 10 16 0.00 0.00
4:53 am 04:53 Clear 64 17.8 62 16.7 93 93 SW 5 7 30.05 1018 10 16 0.00 0.00
5:53 am 05:53 Clear 64 17.8 62 16.7 93 93 Calm 30.06 1018 10 16 0.00 0.00
6:53 am 06:53 Mostly Sunny 65 18.3 61 16.1 87 87 WSW 3 6 30.07 1018 8 13 0.00 0.00
7:53 am 07:53 Sunny 67 19.4 61 16.1 81 81 WSW 6 9 30.08 1019 10 16 0.00 0.00
8:53 am 08:53 Sunny 71 21.7 62 16.7 73 73 W 5 7 30.08 1019 10 16 0.00 0.00
9:53 am 09:53 Sunny 74 23.3 63 17.2 69 69 WSW 7 11 30.07 1018 10 16 0.00 0.00
10:53 am 10:53 Mostly Sunny 78 25.6 64 17.8 62 62 W 9 15 30.07 1018 10 16 0.00 0.00
11:53 am 11:53 Mostly Sunny 80 26.7 63 17.2 56 56 W 12 19 30.06 1018 10 16 0.00 0.00
12:53 pm 12:53 Mostly Sunny 82 27.8 63 17.2 53 53 W 13 20 30.05 1018 10 16 0.00 0.00
1:25 pm 13:25 Mostly Sunny 82 27.8 64 17.8 55 55 WNW 13 20 30.00 1016 10 16 0.00 0.00
1:53 pm 13:53 Mostly Cloudy 82 27.8 64 17.8 55 55 NW 9 15 30.05 1018 10 16 0.00 0.00
2:53 pm 14:53 Mostly Cloudy 82 27.8 64 17.8 55 55 W 9 15 30.04 1017 10 16 0.00 0.00
3:08 pm 15:08 Mostly Cloudy with Nearby Thunderstorms 83 28.3 64 17.8 53 53 W 14 22 30.00 1016 10 16 0.00 0.00
3:24 pm 15:24 Mostly Cloudy 83 28.3 64 17.8 53 53 WNW 12 19 30.00 1016 10 16 0.00 0.00
3:53 pm 15:53 Mostly Cloudy 81 27.2 65 18.3 58 58 NW 12 19 30.04 1017 10 16 0.00 0.00
4:53 pm 16:53 Mostly Cloudy with Light Rain 75 23.9 69 20.6 82 82 NNE 12 19 30.05 1018 10 16 0.01 0.25
5:53 pm 17:53 Cloudy 74 23.3 67 19.4 79 79 NNE 13 20 30.06 1018 10 16 0.00 0.03
6:53 pm 18:53 Mostly Cloudy 73 22.8 59 15 62 62 NE 15 24 30.08 1019 10 16 0.00 0.00
7:53 pm 19:53 Mostly Cloudy 72 22.2 57 13.9 59 59 NE 14 22 30.11 1020 10 16 0.00 0.00
8:53 pm 20:53 Mostly Cloudy 70 21.1 51 10.6 51 51 ENE 14 22 30.13 1020 10 16 0.00 0.00
9:53 pm 21:53 Mostly Clear 68 20 51 10.6 55 55 ENE 8 13 30.14 1021 10 16 0.00 0.00
10:53 pm 22:53 Mostly Clear 65 18.3 52 11.1 63 63 E 7 11 30.16 1021 10 16 0.00 0.00
11:53 pm 23:53 Mostly Clear 64 17.8 51 10.6 63 63 E 8 13 30.16 1022 10 16 0.00 0.00

Powered by AerisWeather